Simultaneous Nadir Overpasses (SNOs) Predictions

Prediction of SNOs between GOES-14 and AQUA Satellite Orbit:

Table of predicted SNOs for the next 14.0 days since TLE Epoch: 8/11/2018
Index Date Time (GOES-14) GOES-14 Lat,Lon AQUA Lat,Lon Distance(km) Time Diff (sec)
1 08/12/2018 20:33:44 0.36,-104.67 0.42,-104.21 51.33 80
2 08/14/2018 20:21:32 0.35,-104.69 1.11,-101.26 389.90 80
3 08/15/2018 08:42:47 -0.37,-104.55 0.04,-106.41 212.04 80
4 08/17/2018 08:27:54 -0.37,-104.57 -0.59,-103.45 126.60 80
5 08/17/2018 20:49:18 0.38,-104.71 -0.46,-108.65 448.47 80
6 08/19/2018 08:15:41 -0.37,-104.59 -1.22,-100.49 465.20 80
7 08/19/2018 20:37:05 0.38,-104.73 0.17,-105.69 109.61 80
8 08/21/2018 20:27:32 0.39,-104.75 0.80,-102.73 229.11 80
9 08/22/2018 08:48:48 -0.40,-104.63 0.28,-107.89 370.96 80
10 08/24/2018 08:36:35 -0.41,-104.65 -0.36,-104.93 32.32 80




NCC Satellite Simultaneous Nadir Overpasses (SNOs) Prediction Service
